Location: Madrid
(40.4000°N, 3.6830°W)
Time: 13:12:45
(UTC+02:00)

ISS - Pass Details

Date: 26 May 2020
Orbit: 417 x 419 km, 51.6° (Epoch: 31 May)

Event Time Altitude Azimuth Distance (km) Brightness Sun altitude
Rises 23:06:57 0° 311° (NW) 2,366 2.0 -14.8°
Reaches altitude 10° 23:09:45 10° 336° (NNW) 1,502 0.2 -15.1°
Maximum altitude 23:11:46 15° 13° (NNE) 1,241 -0.9 -15.4°
Drops below altitude 10° 23:13:47 10° 49° (NE) 1,501 -1.0 -15.7°
Enters shadow 23:15:09 - 65° (ENE) 1,885 -0.6 -15.8°
